Погода в Водоватове

Россия / Нижегородская область     55°24′08″N   43°34′34″E
темп.,
°C
ветер,
м/с
пор.,
м/с
влажн.,
%
обл.,
%
осадки,
мм/ч
давл.,
гПа
погр.,
м
19 апреля, пн
пн1900:00+5всв6128359 0.0 1024511
03:00+4всв51184100 0.0 1024460
06:00+3всв61369100 0.0 1024501
09:00+5всв71261100 0.0 1025649
12:00+8в81050100 0.0 10251188
15:00+8в8104056 0.0 10251435
18:00+7в7114542 0.0 10251367
21:00+4в6135599 0.0 1026819
20 апреля, вт
вт2000:00+3в6145631 0.0 1026572
03:00+1в6146020 0.0 1026476
06:00+1в6156421 0.0 1025591
09:00+4вюв71462100 0.0 1026839
12:00+8вюв8125192 0.0 10241231
15:00+9вюв71350100 0.0 10221387
18:00+8вюв81351100 0.0 10201252
21:00+7вюв81551100 0.0 10191141
21 апреля, ср
ср2100:00+6вюв101851100 0.0 10151121
03:00+3вюв102192100 6.2 10121117
06:00+4вюв112080100 1.2 1009988
09:00+5юв102086100 1.3 10081088
12:00+7ююв91690100 0.1 10081311
15:00+8ююз81580100 0.3 10101334
18:00+7ююз71379100 0.1 10131207
21:00+6ююз41181100 0.1 1015625
22 апреля, чт
чт2200:00+6ююз388796 0.0 1016393
03:00+5ю368992 0.0 1017178
06:00+5ю41089100 0.0 1018326
09:00+7ю588096 0.0 1018428
12:00+12юз695410 0.1 10181790
15:00+13юз685619 0.1 10181439
18:00+12ююз5106365 0.1 1019601
21:00+8ююз387785 0.1 1021150
23 апреля, пт
пт2300:00+9ю367892 0.0 1021125
03:00+8ююз368199 0.0 1021120
06:00+8ю388511 0.0 1021181
09:00+13ю476256 0.0 1021608
12:00+15ююз5654100 1.1 10201428
15:00+16ю4650100 2.3 10191635
18:00+14юв476184 0.3 1019244
21:00+11ююв3971100 0.3 1019231